sat.trackr.live / text

‹ back to catalog

STARLINK-30340

NORAD 57884 · 2023-144W

PAYLOAD ACTIVE UNKNOWN

§ Identity

Operator
Country
US
Launch date
2023-09-16
Launch site
AFETR
Launch vehicle
Mass (kg)
RCS (m²)

Purposes: comms

External: N2YO · Heavens-Above · Gunter

§ Orbital elements

Epoch: 2026-09-20T16:35:00.254688Z

Period
94.27 min
Inclination
42.9999°
Eccentricity
0.0000980
Mean motion
15.27563209 rev/d
Perigee alt
482.4 km
Apogee alt
483.8 km
Semi-major
6,861.2 km
B*
-2.9109e-5
RAAN
263.6461°
Arg perigee
269.0218°
Mean anomaly
91.0521°
Rev number
16,746

§ Raw data

STARLINK-303401 57884U 23144W   26263.69097517 -.00001062  00000+0 -29109-4 0  99942 57884  42.9999 263.6461 0000980 269.0218  91.0521 15.27563209167461

JSON: /api/v1/satellites/57884 · /tle

For live sub-satellite position, see the globe view (requires WebGL).

§ Visibility from observer

Set your observer location to see the next 7 days of passes ≥ 10°. The values pass through the URL so the page stays shareable.

No JS? Fill the form by hand. The geolocation button needs JavaScript.